DECAYED

STARLINK-2171, 47754 (Decayed)

Orbit data source: Space-Track

STARLINK-2171, 47754 was a payload satellite owned by SpaceX/Seattle (US) in LEO that was launched on Thu, 04 Mar 2021 UTC via an FALCON 9 launch vehicle from the Air Force Eastern Test Range (AFETR). Payload-class satellites include a variety of spacecraft equipped with specific instruments for various scientific and technological missions. These include communications satellites like Starlink; space stations such as the ISS; scientific satellites like the Hubble; Earth observation satellites from companies like Planet Labs, Umbra, and HawkEye 360; GPS; miniature CubeSats for education and research; and military/defense satellites.

Not visible in the next 10 days
Identifier
47754, 2021-017AJ
Orbit
Decayed
Country
Flag of USUS
Related business
Manufacturer
SpaceX/Seattle
Mission
Decayed Commercial Communications
Bus & Motor
STARLINK, Unknown motor
Mass
260 kg wet, ~248 kg dry
Launch date (UTC)
2021-03-04 (5 years ago)
Launch vehicle
FALCON 9
Launch site
Air Force Eastern Test Range (AFETR)
Object type
Payload
Rocket body
Debris
Shape & HBR
Box + 1 Pan, 10.1 m
Radar Cross Section
13.562 m², Large (>1 m²)

Expand to show TLE details & history
Last TLE update: 3 months ago

TLE from 3 months ago
0 STARLINK-2171
1 47754U 21017AJ  26159.31806737  .07209204  12230-4  70126-3 0  9991
2 47754  53.0209  69.0731 0008701 240.6169 119.4008 16.37430031292732
Epoch: 2026-06-08T07:38Z
TLE epoch observation values (Epoch: 2026-06-08T07:38:01.020Z)
Latitude
-0.00002°
Longitude
57.86219°
Altitude
176.375 km
Speed
7.8 km/s
True Right ascension
04h 36m 17s
True Declination
0° 00' 00"
Sunlit
Object was in daylight at epoch
Visualization orbit readout
Latitude
Unknown
Longitude
Unknown
Altitude
Unknown
Speed
Unknown
Apparent Right ascension
Unknown
Apparent Declination
Unknown
Sunlit
N/A
Visualization observer readout
Local Sidereal Time
08:57:19
Azimuth
Unknown
Elevation
Unknown
Doppler factor
Unknown
Orbital elements
Apogee altitude
178.639 km
Perigee altitude
167.239 km
Semi-major axis
6,551.076 km
Eccentricity
0.00087
Inclination
53.0209°
RAAN
69.0731°
Arg. of periapsis
240.6169°
True anomaly
119.48762°
Mean anomaly
119.4008°
Eccentric anomaly
119.44421°
Mean motion
4.09331 °/min
Orbital period
87.95 mins
BSTAR
0.00070126
Loading maneuver chart data...
Computing Atmospheric mass density...

Documentation

Showing up to 5 results
|